Theta_e
309 309 310 309 309 309 309 308 308 308 307 307 307 308 307 308 308 306 302 303 298 292 293 295 295 292 293 294 290 296 295 298 297 294 294 294 294 296 296 299 299 299 297 296 298 295 292 308 308 303 310 314 315 314
307 308 308 309 309 309 309 308 308 308 307 307 308 308 307 307 308 308 299 303 303 294 293 299 299 300 298 297 294 295 295 295 297 295 295 296 296 298 296 292 302 296 301 299 301 300 309 311 312 315 315 314 314 315
307 308 308 308 308 308 308 308 308 307 307 307 307 307 307 307 307 306 301 302 299 294 293 294 293 299 302 300 302 292 294 298 297 300 293 292 290 298 294 296 297 301 304 300 301 305 306 308 313 314 315 315 316 318
307 308 308 308 308 308 308 308 307 307 306 307 307 307 307 307 307 306 300 302 300 294 287 291 300 297 302 301 300 301 299 301 299 298 291 288 288 296 293 295 295 302 303 301 302 305 308 310 311 311 312 312 311 315
307 308 308 308 308 307 307 307 307 307 307 307 307 306 307 307 306 306 303 302 304 294 287 289 296 298 300 300 298 299 299 296 294 291 289 289 294 293 294 293 291 300 299 298 298 303 302 303 306 306 307 307 309 313
307 307 307 307 307 307 307 306 306 306 306 307 307 306 307 306 305 300 293 301 304 301 290 285 295 295 298 298 297 297 297 295 294 292 291 293 296 293 288 288 296 300 301 302 299 303 304 306 307 307 306 309 311 310
305 305 306 306 306 306 306 306 306 306 305 305 306 307 306 305 301 296 292 300 303 302 291 284 287 295 298 297 296 295 297 296 295 293 293 294 295 295 291 288 295 297 299 299 300 301 299 302 301 305 306 307 307 307
304 304 304 305 305 305 305 305 305 305 305 305 305 305 305 305 302 297 301 303 303 296 293 286 286 291 300 294 292 296 294 294 295 294 296 294 296 295 288 295 297 299 299 299 300 302 302 304 305 304 305 306 303 304
303 304 304 304 304 304 304 305 305 305 305 305 305 306 302 299 295 297 303 304 303 296 287 287 285 285 297 296 296 295 294 289 295 292 292 295 292 289 294 296 298 299 299 299 302 303 303 302 302 303 304 304 303 304
303 303 303 303 303 303 303 304 304 305 305 305 300 295 291 296 302 304 298 293 292 292 291 286 291 287 292 291 293 294 293 289 288 292 295 291 288 296 298 299 300 299 300 301 298 298 300 300 301 302 303 306 306 306
302 303 303 302 302 302 303 303 304 304 304 298 293 292 298 303 297 293 288 287 288 285 289 289 289 286 294 287 289 295 292 292 285 290 289 289 289 296 301 302 304 305 305 305 305 305 305 305 303 303 305 306 306 306
301 302 302 302 302 302 302 303 303 301 298 297 298 300 300 294 289 285 284 287 285 285 290 289 290 291 292 294 290 292 289 291 284 294 289 287 294 298 301 300 302 303 303 305 308 307 308 308 309 309 308 307 307 307
301 301 301 301 302 303 303 303 303 303 302 301 295 291 290 288 282 281 279 283 284 290 292 292 291 291 292 292 290 289 286 286 294 289 286 291 296 300 300 300 300 302 305 308 309 310 310 310 308 306 306 307 306 306
302 302 302 303 303 303 303 304 303 302 298 291 288 282 284 281 283 285 286 289 292 292 293 294 293 292 294 290 291 287 291 292 285 283 285 294 299 300 299 299 300 302 306 308 309 309 309 307 306 306 306 307 306 306
303 303 303 303 303 303 303 304 303 301 295 289 288 283 284 289 290 291 293 292 294 295 296 295 294 294 292 289 290 289 286 284 285 286 293 299 300 298 298 300 301 305 306 306 310 310 310 310 309 310 311 311 311 312
303 303 301 303 304 303 304 303 300 298 293 290 288 285 289 288 289 290 292 292 297 297 298 296 291 288 288 290 286 285 284 283 289 295 298 298 297 298 299 301 305 306 307 309 308 310 309 308 307 307 309 311 311 311
301 299 303 304 304 304 302 297 296 291 290 288 288 291 290 289 289 292 293 295 300 297 292 293 285 285 290 288 287 291 288 293 296 296 298 297 297 298 301 306 307 307 307 308 308 307 308 307 307 306 305 307 308 307
298 302 303 304 303 300 298 297 292 289 286 289 288 289 290 292 292 293 295 297 298 296 294 291 295 288 286 285 289 295 297 298 298 296 296 297 299 302 309 309 307 307 308 309 309 307 307 307 305 304 306 306 306 307
301 303 303 302 300 296 291 292 294 286 288 290 291 291 291 293 294 295 295 296 297 299 296 295 289 286 289 294 294 296 296 296 293 295 298 302 307 307 308 309 309 309 307 305 308 305 305 307 308 309 309 309 306 307
302 301 302 302 301 294 289 290 295 290 287 291 292 291 292 294 296 296 296 297 297 297 292 290 291 294 295 298 300 297 297 298 298 297 300 304 308 308 306 308 308 309 309 309 306 300 307 309 309 306 308 309 309 308
299 299 300 299 298 296 294 291 290 292 292 289 294 293 294 295 295 294 295 298 294 293 291 296 296 299 302 300 300 300 300 301 300 302 304 306 307 307 307 308 308 308 308 308 307 305 303 305 306 307 308 307 308 308
298 300 298 299 294 293 292 295 292 294 292 290 291 293 291 290 291 293 297 293 292 295 298 298 299 298 298 299 300 304 305 306 307 307 300 302 305 305 305 306 308 307 307 307 307 306 305 306 307 307 307 306 305 307
299 299 296 294 289 288 287 296 289 290 285 288 290 289 289 289 291 296 291 294 296 301 302 300 300 302 301 305 306 309 310 308 307 306 307 306 306 307 307 307 308 307 306 306 307 307 306 297 301 306 307 307 307 306
299 293 289 289 287 284 290 288 289 288 288 287 286 285 287 289 294 292 289 292 297 301 302 302 304 303 304 305 306 307 308 309 307 306 308 307 306 305 306 307 307 307 308 308 309 309 309 308 300 308 308 307 307 307
287 286 286 284 287 285 285 286 286 286 285 287 286 287 288 291 288 286 288 295 299 301 303 303 304 305 304 305 306 307 308 307 305 305 305 307 307 307 306 307 308 309 309 309 308 308 308 309 309 309 308 308 307 306
284 287 285 287 287 285 286 285 285 286 287 286 286 293 296 293 290 290 295 298 301 303 305 305 304 305 305 304 306 308 308 307 307 305 305 305 306 305 305 305 305 305 308 309 307 306 307 308 308 307 307 306 294 303
285 286 288 292 290 289 288 290 291 292 292 292 294 295 294 289 290 295 301 304 304 306 307 309 307 305 304 305 306 306 309 309 308 307 309 310 311 310 308 306 306 307 309 308 308 308 306 305 304 305 305 307 306 306
288 289 287 291 292 293 291 294 294 294 296 299 298 293 291 290 292 300 301 306 307 308 307 308 309 309 308 308 308 307 308 309 311 310 312 311 311 311 311 310 307 288 305 305 308 310 309 308 307 306 304 304 305 307
288 292 293 293 295 296 296 295 295 297 299 299 296 295 296 301 304 304 305 306 308 308 307 307 307 311 310 310 310 310 309 309 307 305 305 305 306 307 312 311 311 311 312 310 289 295 302 305 308 308 307 306 306 305
294 296 295 296 294 293 297 299 299 301 302 302 303 302 303 303 305 308 308 308 305 304 305 307 307 307 306 307 307 307 309 310 310 307 306 305 306 310 312 312 312 312 313 312 309 306 293 302 298 304 301 302 302 300
300 299 297 297 296 298 300 304 304 304 303 302 304 301 300 301 306 309 308 307 306 305 306 305 305 305 305 306 306 307 305 306 309 308 309 310 310 310 311 311 311 311 310 310 308 306 302 300 299 297 294 292 291 291
300 298 297 294 296 302 304 301 300 299 300 300 299 301 302 301 299 303 306 308 306 304 298 302 303 301 302 302 302 300 291 301 300 301 305 308 309 309 308 307 307 306 305 304 302 300 297 297 297 296 294 292 291 291
299 300 299 298 298 298 301 301 298 297 298 297 298 300 300 300 298 303 309 309 307 304 303 301 301 302 302 301 300 298 295 296 289 285 286 285 285 293 303 303 302 301 300 299 298 296 295 293 292 291 290 289 288 288
Wind_Speed
15 14 15 15 14 13 13 12 12 10 9 9 9 7 7 7 11 5 2 5 3 3 6 10 11 8 5 6 6 5 7 4 3 6 5 11 9 13 14 16 10 12 8 7 6 9 13 5 4 10 2 1 2 3
14 13 13 14 14 13 13 12 12 11 10 10 9 9 7 7 10 10 2 3 2 2 3 5 13 15 15 16 7 3 5 5 4 4 2 4 4 3 7 15 9 17 13 10 9 6 3 3 0 1 1 4 3 6
13 13 14 15 13 13 12 12 13 12 11 10 9 9 10 9 9 7 2 3 2 3 6 9 10 16 16 20 17 7 7 7 5 2 3 3 6 3 5 6 4 4 2 5 5 8 6 6 2 2 2 4 5 5
12 11 13 14 14 13 13 12 12 12 11 10 9 10 10 9 7 8 3 2 1 1 4 7 5 10 9 13 19 20 16 8 5 2 2 3 3 5 4 6 4 4 6 2 4 0 2 3 4 5 6 7 10 9
12 11 10 11 13 13 13 13 12 11 10 11 11 10 10 11 8 4 2 3 3 2 3 8 16 16 17 19 21 17 17 13 7 5 4 3 3 3 3 4 6 6 4 2 2 7 10 14 13 12 12 13 11 8
10 11 10 10 10 11 11 11 12 12 12 14 12 11 11 7 12 2 1 2 5 3 3 5 5 6 7 5 12 16 12 9 7 5 6 6 12 4 5 8 9 10 13 5 7 12 11 13 14 14 13 14 12 10
6 8 9 10 12 11 12 12 12 11 11 11 12 12 6 15 4 2 2 3 2 2 2 5 6 4 4 1 3 6 9 8 4 4 7 11 9 9 6 15 11 15 16 16 16 15 21 20 17 16 12 14 14 14
7 9 9 10 10 11 12 12 12 11 12 10 5 7 11 17 4 1 4 6 4 2 2 4 6 5 2 3 3 1 4 7 6 4 4 5 4 6 9 17 18 22 23 23 24 23 22 22 22 21 19 16 18 17
11 12 12 10 9 7 5 9 13 10 6 7 13 15 4 1 2 2 4 11 1 2 2 3 4 4 4 3 3 1 2 4 2 5 6 5 6 10 12 11 12 15 15 18 19 20 21 21 21 21 20 20 20 18
7 9 10 9 8 7 6 5 7 11 12 17 4 2 2 3 4 11 3 3 3 3 3 4 3 6 5 4 3 2 1 3 4 4 2 5 9 16 18 18 16 15 15 16 19 20 21 20 20 22 22 19 18 17
9 10 11 10 9 8 9 9 9 11 13 2 2 2 1 8 2 2 3 3 2 3 4 4 6 6 2 4 3 3 2 3 3 2 4 4 4 3 5 9 10 11 15 17 17 19 19 20 19 20 20 20 18 19
10 10 9 11 11 12 12 12 12 5 2 5 5 4 3 3 2 3 2 2 4 4 4 3 2 3 3 2 3 2 3 2 4 1 3 4 1 4 12 17 20 20 20 19 17 17 18 17 17 17 18 18 18 16
12 13 13 13 13 12 16 17 14 13 7 2 3 3 3 2 4 5 6 4 4 4 4 4 3 3 4 3 4 3 4 5 2 3 4 3 3 9 15 16 20 20 18 17 14 13 14 15 15 13 12 11 11 11
15 14 13 12 14 12 12 17 20 13 2 2 4 5 4 5 6 6 5 2 1 3 3 4 3 3 2 3 2 4 3 3 4 4 4 2 8 14 17 21 18 18 13 12 9 7 9 8 7 5 4 4 5 7
8 10 12 15 15 13 14 19 18 3 2 3 3 5 7 5 4 3 4 3 4 3 3 3 3 2 3 3 3 4 3 4 4 4 2 6 11 15 16 16 14 11 9 7 6 7 8 7 6 7 5 2 2 2
8 6 4 10 17 17 19 15 3 2 1 3 3 3 3 3 4 4 5 6 2 1 2 2 2 2 3 2 3 5 4 5 2 4 7 10 18 20 16 14 10 8 7 6 5 6 6 6 5 6 6 6 8 8
7 2 8 13 20 20 17 4 2 3 3 3 4 4 3 3 3 1 2 2 0 2 2 1 2 2 3 3 4 5 4 3 6 8 11 18 15 16 15 11 8 7 6 6 7 9 9 7 6 6 8 9 10 12
2 3 10 18 14 8 3 1 2 3 5 4 4 3 3 3 2 3 3 2 2 1 2 2 2 4 4 4 3 0 2 5 7 11 12 17 14 12 8 7 7 6 8 10 12 11 10 10 9 7 10 10 10 10
3 7 17 21 8 4 3 2 2 3 5 2 2 2 2 3 4 4 3 2 2 2 3 2 5 5 4 4 5 8 8 7 11 13 11 13 9 6 4 6 5 7 8 7 10 6 5 9 8 8 7 9 8 7
20 18 17 10 4 2 4 3 1 3 3 1 2 3 3 3 1 2 3 4 3 3 5 5 6 3 3 5 4 9 11 11 6 9 7 5 4 5 5 4 4 5 5 5 5 5 4 5 5 5 5 6 6 5
5 3 5 1 2 2 1 3 3 2 1 2 1 2 2 2 3 3 3 4 4 4 5 6 6 6 6 7 9 10 11 7 6 4 5 6 6 4 4 4 4 4 5 5 5 6 6 6 5 5 6 6 5 5
1 3 2 2 2 1 1 3 1 1 2 1 2 3 3 2 3 3 2 5 4 5 5 5 7 7 9 11 8 7 7 7 6 5 5 4 1 3 4 3 4 5 5 4 4 5 5 5 5 6 7 6 5 6
4 2 2 2 2 1 1 3 3 3 4 2 2 3 2 2 3 2 3 4 4 3 4 4 9 8 9 9 6 8 6 6 2 0 2 2 3 3 4 4 3 5 5 4 3 4 5 3 4 5 5 5 5 5
4 2 1 2 3 2 2 4 2 3 2 2 3 3 3 3 3 3 2 3 3 4 5 7 3 2 2 2 4 4 4 2 1 3 2 2 3 3 2 3 4 4 4 3 3 3 3 4 1 3 3 4 3 2
2 4 3 5 3 3 4 4 4 3 3 5 5 3 3 3 2 2 2 2 1 2 2 2 2 3 3 3 3 3 3 3 4 4 3 1 2 3 3 3 2 2 2 3 3 3 3 2 2 2 2 3 2 2
4 5 4 3 4 5 5 3 6 7 4 5 6 4 5 3 2 2 3 3 4 4 4 3 3 1 1 3 3 4 5 5 4 4 4 4 3 2 2 3 3 3 1 2 1 2 4 4 4 5 5 5 3 5
3 3 3 4 2 2 4 5 5 4 4 2 2 3 3 4 5 3 3 3 2 3 3 2 4 4 3 4 3 4 3 4 6 6 5 5 5 5 4 3 3 3 3 3 2 4 4 3 3 4 3 2 3 2
3 3 3 2 4 4 4 3 3 4 3 3 2 5 3 3 1 1 2 3 2 3 4 4 5 5 5 5 4 3 4 3 3 2 1 6 7 6 6 4 4 2 5 5 5 5 5 5 3 3 4 4 6 7
3 2 3 3 1 2 4 4 4 3 3 2 5 4 4 3 3 3 3 2 2 3 5 5 6 4 4 6 8 8 7 6 6 9 10 7 7 8 7 7 6 6 5 6 9 10 12 10 9 10 11 9 9 10
2 1 3 6 7 8 6 4 5 5 4 4 4 6 5 4 6 4 3 4 5 7 6 6 5 6 6 6 7 10 9 9 8 7 6 6 5 5 6 6 7 6 5 5 7 10 10 11 11 12 12 11 9 10
0 1 4 5 5 4 5 6 8 9 8 7 8 9 5 2 2 6 6 4 4 5 8 8 8 8 8 8 7 7 8 8 9 10 7 5 5 6 6 6 6 6 7 8 9 10 11 9 9 11 14 14 14 11
4 5 8 13 7 3 5 6 5 5 5 6 4 4 5 7 6 4 6 5 5 6 5 7 8 7 6 6 7 7 6 6 7 7 9 6 7 7 7 7 8 8 10 11 11 11 12 12 11 12 13 14 12 12
3 2 3 3 2 3 2 2 3 4 5 5 4 3 3 4 5 2 3 4 3 3 4 5 5 6 8 8 8 7 8 9 8 7 8 9 8 8 7 7 8 9 11 11 11 12 14 15 14 14 14 13 13 12
Wind_Direction
241 229 230 226 222 223 223 230 228 225 225 232 242 241 240 241 203 178 236 188 172 224 258 267 272 280 282 244 260 353 325 194 254 252 246 235 249 233 243 234 215 219 197 198 210 236 257 178 171 227 352 22 295 327
238 233 227 229 219 222 220 219 220 214 219 228 233 240 244 260 234 205 199 192 168 218 269 287 258 254 249 253 276 252 269 316 298 295 316 300 260 252 262 241 223 239 235 243 215 237 114 164 85 5 258 286 318 316
246 234 229 224 213 212 215 220 208 211 220 227 233 239 242 250 240 196 157 138 147 264 267 254 246 256 243 240 234 247 233 240 233 353 339 302 277 301 242 219 278 206 34 236 215 206 232 260 287 0 15 359 355 336
245 245 225 209 204 211 212 207 205 213 220 224 233 240 235 243 243 179 157 173 151 285 275 272 277 257 241 226 220 222 237 259 292 311 281 252 270 330 323 329 292 335 316 273 254 239 276 119 71 31 358 333 324 319
234 230 227 206 201 209 209 207 205 212 220 226 230 234 231 229 228 159 136 192 198 205 290 288 298 277 247 240 234 219 223 230 231 247 244 246 249 285 318 278 236 273 291 278 287 323 312 287 295 303 301 302 305 298
225 223 203 191 192 196 192 192 203 212 217 230 226 230 235 202 125 120 256 196 210 184 281 294 321 283 316 249 216 211 206 211 206 206 234 228 232 200 256 262 252 242 260 277 266 276 277 283 293 298 292 291 287 298
198 189 188 186 181 186 197 207 220 220 221 230 232 227 221 152 136 172 201 123 150 141 246 290 280 260 298 84 189 192 202 208 211 229 231 247 253 194 235 247 256 264 272 282 277 274 277 274 269 281 284 276 279 286
218 201 204 208 211 216 216 216 213 206 224 231 221 160 163 162 95 175 188 147 150 201 226 266 272 282 33 69 314 333 181 192 215 232 233 222 235 212 253 248 251 252 252 256 258 260 262 269 277 275 274 274 275 273
234 225 223 218 212 195 195 212 215 204 189 174 144 124 109 127 147 200 175 174 124 234 260 244 281 306 355 203 174 156 270 218 217 239 234 220 206 229 248 271 272 262 262 264 264 263 261 262 267 269 266 267 265 263
235 209 183 168 162 157 166 173 171 162 146 133 98 127 159 189 158 125 152 186 212 187 224 252 256 266 320 306 281 213 155 226 239 210 155 233 248 263 276 285 287 288 287 280 276 269 262 259 260 262 262 260 258 255
215 196 181 172 173 178 182 189 176 151 129 103 129 116 98 143 149 166 204 238 172 234 212 243 239 259 244 249 277 246 247 215 258 170 243 227 250 194 357 325 321 309 299 284 274 270 268 263 264 262 263 260 255 253
217 202 203 202 203 199 197 184 177 139 153 142 110 98 129 174 133 234 215 194 225 249 192 225 234 225 257 239 255 244 269 257 259 71 252 254 67 5 338 333 323 325 307 298 287 277 276 269 267 270 267 260 252 241
217 211 209 209 213 219 203 199 169 132 122 128 109 134 182 149 197 212 201 200 226 199 205 209 243 223 197 219 246 263 246 241 313 233 256 274 350 332 333 333 310 305 300 300 293 283 287 292 296 289 277 260 243 226
212 213 216 208 200 198 167 173 157 134 121 128 157 141 210 180 227 209 225 223 200 226 233 229 237 227 214 221 261 254 246 271 263 242 249 316 322 330 328 310 308 306 310 320 315 333 331 332 332 303 270 257 228 230
217 204 201 197 186 161 152 160 141 100 158 164 174 199 207 224 241 252 257 261 235 246 256 277 245 239 214 251 227 290 250 255 248 267 306 326 316 312 300 300 302 311 329 332 18 6 1 16 37 52 53 101 116 67
161 135 172 176 176 168 160 132 94 83 291 173 204 224 203 221 231 223 231 256 246 205 200 227 280 249 250 226 217 225 256 242 287 323 319 318 314 305 318 319 322 346 7 34 23 15 18 38 65 54 50 78 86 91
129 129 167 158 155 156 132 95 119 167 192 212 219 226 229 286 266 254 197 251 102 242 298 346 281 281 295 236 235 211 238 323 338 318 321 304 304 308 312 319 360 359 34 43 45 42 44 52 66 68 72 77 86 87
149 186 168 146 129 102 72 73 133 163 206 216 231 192 201 231 228 226 222 208 221 245 212 276 271 229 240 245 240 264 292 302 311 307 297 293 301 298 322 20 18 10 37 53 57 45 40 70 74 72 82 88 93 92
97 175 148 128 111 97 117 158 207 217 221 201 231 222 232 252 234 261 262 215 244 260 274 230 249 234 235 235 281 303 291 303 300 299 293 295 300 315 12 50 47 56 55 42 59 46 42 43 59 68 80 98 88 87
70 78 91 86 105 126 129 138 196 226 209 198 204 195 222 224 200 211 217 201 191 205 220 228 232 236 240 269 314 305 289 285 281 282 291 277 342 29 43 44 55 68 82 91 62 48 74 74 50 31 65 95 111 108
77 99 93 157 123 79 118 151 181 228 160 245 294 224 239 199 229 215 225 171 198 221 230 232 247 259 265 287 277 278 279 280 271 254 295 328 358 10 51 57 55 68 79 65 74 70 63 58 53 67 78 75 79 84
99 83 87 41 73 79 200 160 196 134 213 260 269 206 235 225 235 225 179 203 236 227 225 257 266 276 278 274 271 275 271 283 286 264 267 269 345 64 70 64 91 81 65 60 78 78 68 62 83 89 87 91 91 90
112 65 74 70 79 126 216 158 192 210 210 206 222 218 211 213 228 166 234 229 253 232 223 237 255 268 259 276 267 274 266 291 307 230 124 89 65 73 82 76 81 99 96 77 75 78 78 66 89 101 100 100 98 100
50 93 185 199 187 239 197 197 194 215 198 207 198 217 209 208 202 221 252 280 257 283 264 273 275 157 211 212 270 311 337 316 246 134 148 143 110 85 72 83 78 74 80 106 98 99 88 85 103 110 88 87 81 67
181 188 192 210 194 208 216 197 187 193 229 189 208 219 191 172 181 221 223 269 258 259 8 264 140 182 271 295 286 336 357 351 39 74 49 7 115 131 110 106 114 116 154 154 147 145 145 171 187 204 216 230 245 243
238 184 215 216 182 201 204 203 195 199 182 181 223 207 179 158 128 18 48 304 341 349 18 37 7 71 57 352 1 15 354 355 333 82 46 16 22 35 51 41 47 80 13 266 227 203 218 228 244 249 263 269 236 276
252 237 211 228 237 223 229 218 226 217 149 108 136 144 102 67 48 31 327 1 329 355 19 16 34 42 21 8 20 18 15 29 69 84 83 53 47 31 18 18 37 22 343 345 273 220 238 253 264 263 286 3 19 25
248 218 250 255 216 217 299 343 31 38 36 27 61 47 66 92 87 5 254 311 328 352 40 53 49 41 39 37 35 59 61 74 91 114 113 72 58 39 21 26 38 41 64 30 19 24 5 348 352 13 47 65 57 45
283 268 276 316 144 142 42 23 28 30 333 3 87 74 72 38 15 359 0 1 59 71 64 51 28 12 48 56 55 46 34 27 68 65 63 49 42 32 17 28 33 41 42 78 58 54 53 47 48 65 66 65 62 59
315 282 344 44 41 42 21 34 64 64 58 66 95 105 80 50 21 14 60 97 77 67 65 60 39 38 40 45 60 60 45 38 36 42 57 54 32 349 3 13 14 9 16 45 71 83 75 64 61 60 56 49 49 55
181 298 52 46 62 37 37 56 70 68 66 70 72 83 84 89 77 38 40 19 35 64 56 48 46 34 43 45 45 59 61 36 36 44 44 54 46 40 38 36 35 42 53 60 67 74 74 68 67 78 79 67 48 47
35 57 86 89 82 50 57 54 56 58 56 59 38 42 80 79 68 29 360 359 49 59 36 61 61 49 49 61 63 68 48 46 28 20 29 49 52 47 46 45 46 54 62 64 66 72 73 75 75 76 74 75 71 65
67 60 65 79 81 85 66 96 80 78 61 66 53 45 50 54 67 12 358 24 47 83 81 76 80 79 74 73 79 80 69 68 59 38 37 40 31 21 48 53 57 64 70 71 70 72 72 75 75 75 74 72 68 65